CZ-6A DEB

Satellite information

Favourite Embed

Satellite Type and Status

DEBRISIN ORBIT

Key statistics

Satellite CZ-6A DEB at a glance.

Uptime

334

Days in orbit

Revolutions

≈ 14.4

Per day

Orbit

LEO

Low Earth Orbit

Inclination

89.1

Latest

Satellite identification and parameters

Extended collection of information and parameters for CZ-6A DEB.

Object identification

Identified? True

Debris? True

Object name: CZ-6A DEB

International designator: 2024-140HF

Object number (NORAD): 60828

Object ID (CCSDS): 60828

Country: PEOPLES REPUBLIC OF CHINA (PRC)

Current information (Y/N): Y

RCS size: SMALL

Orbital parameters

Period: 99.881 minutes

Inclination: 89.0821 deg

SMA: 7130.967 km

Apoapsis: 814.771 km

Periapsis: 690.893 km

RAAN: 315.688 deg

Eccentricy: 0.0086859

Argument of periapsis: 65.6474 deg

Mean anomaly: 295.3765 deg

Mean motion: 14.41717272 rev/day

Mean motion (dot): 0.00000667 rev/day2

B* drag term: 0.00019091 1/REarth

Two-line elements (TLE)

Creation date: July 4, 2025, 6:39 p.m.

Reference frame: TEME

Reference center: EARTH

Epoch: July 4, 2025, 9:13 a.m. UTC

TLE line 0: 0 CZ-6A DEB

TLE line 1: 1 60828U 24140HF 25185.38458564 .00000667 00000-0 19091-3 0 9991

TLE line 2: 2 60828 89.0821 315.6880 0086859 65.6474 295.3765 14.41717272 46837

Live tracking on map

Real-time ground track for satellite CZ-6A DEB.

In-orbit conjunctions

A list of the most updated potential collisions computed for object CZ-6A DEB.

Target Orbit TCA Probability of collision Miss distance Type
DIADEME 1 LEO 2025-04-21 11:45:41 0.0003353897 109.0 (m) PAYLOAD
CZ-4 DEB SSO 2025-02-11 23:14:13 0.0003763495 539.0 (m) DEBRIS
CZ-6A DEB LEO 2025-01-15 06:08:11 0.0001267524 493.0 (m) DEBRIS
COSMOS 2251 DEB LEO 2024-11-05 00:18:16 0.0001755191 599.0 (m) DEBRIS
CZ-6A DEB SSO 2024-10-12 00:11:34 0.0002060899 825.0 (m) DEBRIS

Associated space launch

18 Low Earth Orbit communication satellites with Ku, Q and V band payloads for the G60 constellation operated by Shanghai Spacecom Satellite Technology (SSST) with funding backed by the Shanghai local government. Initial constellation will consist of 1296 satellites by 2027 with long term plans to expand it to 12000 satellites.

CZ-6A DEB was lifted into orbit during the mission ‘Long March 6A | G60 Polar Group 01’, on board a Long March 6A space rocket.

The launch took place on Aug. 6, 2024, 6:42 a.m. from Launch Complex 9A.

For more information about the launch, click the button.

Launch to space Long March 6A | G60 Polar Group 01
Long March 6A | G60 Polar Group 01

Agency: N/A

Status: Launch Successful

Launch date: Aug. 6, 2024, 6:42 a.m. UTC

Rocket: Long March 6A

Launch pad: Launch Complex 9A

Location: Taiyuan Satellite Launch Center, People's Republic of China

...

Latest news about this satellite

News about space launch
Brightness of first Chinese broadband constellation satellites alarms astronomers

The first satellites of a Chinese broadband constellation are significantly brighter than those of Western systems, posing a new challenge for astronomers.

News about space launch
Chinese rocket stage breaks up into cloud of more than 700 pieces of space debris

HELSINKI — A Chinese Long March 6A rocket’s upper stage has fragmented into a cloud of over 700 pieces of space debris, adding to concerns about long-term orbital safety. China […]

News about space launch
China's Thousand Sails Megaconstellation Kicks Off with Dangerous Debris Field

China's Thousand Sails Megaconstellation Kicks Off with Dangerous Debris Field


Newsletter sign-up

Weekly statistics, charts and insights to help you stay on top of the space industry.